SIA323 EHAM-WSSS

Flight info

Callsign SIA323
Flight time N/A
Altitude 35000
Route ARNEM L620 HMM DCT NOMKA L620 OMELO DCT PEPIK/N0481F370 DCT BUDOP DCT LUGEB DCT UDROS UM859 KARDE UN644 ROLIN DCT TAGAR DCT BT DCT BARAD M747 SUBUT T923 EDELU/N0484F390 T923 ERLEV M11 RODAR A909 LEMOD N644 DI A466 DPN L759 KKJ/N0487F410 L759 PUT B579 VPL Y503 RINBA Y507 MAKNA Y511 TOPOR A464 ARAMA DCT TEBUN LELIB3B
Aircraft A359/H-SDE2E3GHIJ3J4J5LM1ORWXY/LB1D1

Departure

Time N/A
Airport Amsterdam Airport Schiphol (EHAM)

Arrival

Time 2026-05-04 17:10
Airport Singapore Changi Airport (WSSS)
Time Latitude Longitude Altitude Speed Heading
2026-05-04 15:48 8.04352 98.36732 40914 ft 484 kts 140°
2026-05-04 15:49 7.99083 98.40970 40904 ft 484 kts 140°
2026-05-04 15:49 7.93850 98.45219 40897 ft 484 kts 140°
2026-05-04 15:50 7.88616 98.49515 40895 ft 484 kts 140°
2026-05-04 15:50 7.83395 98.53813 40893 ft 484 kts 140°
2026-05-04 15:51 7.78187 98.58098 40892 ft 484 kts 140°
2026-05-04 15:51 7.72998 98.62366 40896 ft 484 kts 140°
2026-05-04 15:52 7.67790 98.66651 40894 ft 483 kts 140°
2026-05-04 15:52 7.62572 98.70940 40900 ft 483 kts 140°
2026-05-04 15:53 7.57362 98.75222 40903 ft 483 kts 140°
2026-05-04 15:53 7.52156 98.79500 40905 ft 483 kts 140°
2026-05-04 15:54 7.46948 98.83778 40907 ft 483 kts 140°
2026-05-04 15:54 7.41738 98.88063 40906 ft 483 kts 140°
2026-05-04 15:55 7.36548 98.92314 40909 ft 483 kts 140°
2026-05-04 15:55 7.31329 98.96587 40912 ft 483 kts 140°
2026-05-04 15:56 7.26111 99.00861 40911 ft 483 kts 140°
2026-05-04 15:56 7.20887 99.05140 40910 ft 483 kts 140°
2026-05-04 15:57 7.15668 99.09415 40908 ft 483 kts 140°
2026-05-04 15:57 7.10447 99.13688 40910 ft 483 kts 140°
2026-05-04 15:58 7.05231 99.17958 40909 ft 484 kts 140°
2026-05-04 15:58 7.00013 99.22228 40911 ft 483 kts 140°
2026-05-04 15:59 6.94822 99.26473 40910 ft 483 kts 140°
2026-05-04 15:59 6.89600 99.30743 40908 ft 483 kts 140°
2026-05-04 16:00 6.84371 99.35017 40910 ft 483 kts 140°
2026-05-04 16:00 6.79161 99.39275 40908 ft 482 kts 140°
2026-05-04 16:01 6.73951 99.43531 40911 ft 482 kts 140°
2026-05-04 16:01 6.68771 99.47762 40909 ft 482 kts 140°
2026-05-04 16:02 6.63554 99.52022 40910 ft 483 kts 140°
2026-05-04 16:03 6.55725 99.58413 40913 ft 483 kts 140°
2026-05-04 16:03 6.50505 99.62672 40913 ft 483 kts 140°
2026-05-04 16:04 6.45275 99.66934 40911 ft 483 kts 140°
2026-05-04 16:04 6.37356 99.73146 40913 ft 483 kts 141°
2026-05-04 16:05 6.32386 99.77685 40914 ft 483 kts 135°
2026-05-04 16:06 6.25292 99.84871 40912 ft 483 kts 133°
2026-05-04 16:07 6.15889 99.94537 40914 ft 483 kts 134°
2026-05-04 16:08 6.06465 100.04182 40916 ft 483 kts 134°
2026-05-04 16:09 5.94663 100.16231 40913 ft 484 kts 134°
2026-05-04 16:10 5.85246 100.25848 40904 ft 484 kts 134°
2026-05-04 16:11 5.75791 100.35499 40902 ft 484 kts 134°
2026-05-04 16:12 5.61621 100.49952 40905 ft 485 kts 134°
2026-05-04 16:13 5.52152 100.59605 40906 ft 486 kts 134°
2026-05-04 16:14 5.42657 100.69280 40905 ft 487 kts 134°
2026-05-04 16:15 5.34345 100.74999 40909 ft 489 kts 159°
2026-05-04 16:16 5.27735 100.76621 40906 ft 490 kts 169°
2026-05-04 16:17 5.10858 100.79200 40904 ft 490 kts 171°
2026-05-04 16:18 4.97423 100.81308 40905 ft 490 kts 170°
2026-05-04 16:19 4.80563 100.83978 40911 ft 490 kts 170°
2026-05-04 16:20 4.63716 100.86635 40922 ft 490 kts 170°
2026-05-04 16:22 4.46947 100.89441 40922 ft 490 kts 164°
2026-05-04 16:23 4.28339 100.97848 40907 ft 489 kts 153°
2026-05-04 16:25 4.10044 101.06793 40908 ft 489 kts 154°
2026-05-04 16:26 3.88604 101.17224 40907 ft 489 kts 154°
2026-05-04 16:28 3.73347 101.24690 40916 ft 489 kts 152°
2026-05-04 16:29 3.52276 101.35737 40917 ft 488 kts 152°
2026-05-04 16:31 3.37230 101.43562 40911 ft 487 kts 152°
2026-05-04 16:32 3.18973 101.52437 40911 ft 488 kts 154°
2026-05-04 16:33 3.07650 101.57619 40912 ft 488 kts 154°
2026-05-04 16:34 2.98402 101.61886 40908 ft 488 kts 154°
2026-05-04 16:35 2.78876 101.70896 40911 ft 488 kts 154°
2026-05-04 16:36 2.70668 101.74689 40912 ft 488 kts 153°
2026-05-04 16:37 2.61476 101.79121 40905 ft 488 kts 153°
2026-05-04 16:38 2.51375 101.86065 40907 ft 484 kts 129°
2026-05-04 16:39 2.41299 101.99260 40917 ft 483 kts 126°
2026-05-04 16:40 2.33256 102.09992 40933 ft 483 kts 126°
2026-05-04 16:41 2.25350 102.20482 40939 ft 483 kts 126°
2026-05-04 16:43 2.15231 102.33907 40940 ft 483 kts 126°
2026-05-04 16:43 2.11204 102.39250 40600 ft 481 kts 127°
2026-05-04 16:43 2.09177 102.41938 39851 ft 483 kts 127°
2026-05-04 16:44 2.01020 102.52770 36642 ft 494 kts 126°
2026-05-04 16:45 1.96868 102.58292 35039 ft 498 kts 126°
2026-05-04 16:46 1.90608 102.66659 32469 ft 503 kts 126°
2026-05-04 16:46 1.86408 102.72270 30630 ft 506 kts 127°
2026-05-04 16:47 1.82173 102.77892 29008 ft 502 kts 127°
2026-05-04 16:47 1.78041 102.83362 27664 ft 491 kts 127°
2026-05-04 16:48 1.71349 102.90863 25680 ft 478 kts 140°
2026-05-04 16:48 1.68748 102.92908 25021 ft 474 kts 141°
2026-05-04 16:49 1.63566 102.96901 23738 ft 467 kts 141°
2026-05-04 16:49 1.58455 103.00823 22350 ft 457 kts 141°
2026-05-04 16:50 1.53500 103.04622 21064 ft 446 kts 141°
2026-05-04 16:50 1.48604 103.08376 19769 ft 436 kts 141°
2026-05-04 16:51 1.43871 103.12004 18498 ft 428 kts 141°
2026-05-04 16:51 1.41525 103.13803 17819 ft 424 kts 141°
2026-05-04 16:51 1.37008 103.17265 17445 ft 392 kts 141°
2026-05-04 16:52 1.32837 103.20461 17176 ft 362 kts 141°
2026-05-04 16:52 1.30876 103.21965 17042 ft 349 kts 141°
2026-05-04 16:53 1.27179 103.24802 16674 ft 328 kts 140°
2026-05-04 16:53 1.21515 103.28564 15430 ft 324 kts 148°
2026-05-04 16:54 1.19575 103.29683 15065 ft 320 kts 148°
2026-05-04 16:55 1.12002 103.34057 13651 ft 308 kts 149°
2026-05-04 16:55 1.08329 103.36182 12944 ft 301 kts 149°
2026-05-04 16:56 1.04797 103.38222 12570 ft 283 kts 149°
2026-05-04 16:56 0.99920 103.41042 12027 ft 261 kts 149°
2026-05-04 16:57 0.98468 103.42078 11755 ft 257 kts 134°
2026-05-04 16:57 0.97265 103.45290 11214 ft 250 kts 96°
2026-05-04 16:58 0.96901 103.50408 10454 ft 243 kts 94°
2026-05-04 16:58 0.96782 103.52083 10196 ft 241 kts 94°
2026-05-04 16:59 0.96529 103.55453 9744 ft 252 kts 95°
2026-05-04 17:00 0.97155 103.62549 8561 ft 258 kts 82°
2026-05-04 17:00 0.97902 103.67836 7732 ft 255 kts 82°
2026-05-04 17:01 0.98470 103.71304 7173 ft 252 kts 72°
2026-05-04 17:01 1.00183 103.74339 6660 ft 250 kts 57°
2026-05-04 17:02 1.02076 103.77233 6102 ft 248 kts 57°
2026-05-04 17:02 1.04148 103.79985 5603 ft 246 kts 51°
2026-05-04 17:03 1.05224 103.81297 5356 ft 243 kts 50°
2026-05-04 17:03 1.06286 103.82590 5106 ft 239 kts 50°
2026-05-04 17:03 1.08351 103.85111 4654 ft 232 kts 50°
2026-05-04 17:04 1.10621 103.87306 4146 ft 225 kts 32°
2026-05-04 17:04 1.13404 103.88622 3706 ft 215 kts 22°
2026-05-04 17:05 1.16094 103.89751 3245 ft 205 kts 22°
2026-05-04 17:05 1.18705 103.90858 2986 ft 204 kts 22°
2026-05-04 17:06 1.21313 103.91974 2839 ft 203 kts 22°
2026-05-04 17:06 1.22597 103.92527 2591 ft 199 kts 22°
2026-05-04 17:07 1.25087 103.93581 2048 ft 183 kts 22°
2026-05-04 17:07 1.25839 103.93900 1896 ft 173 kts 23°
2026-05-04 17:07 1.27235 103.94493 1617 ft 156 kts 24°
2026-05-04 17:07 1.28221 103.94914 1416 ft 154 kts 24°
2026-05-04 17:08 1.29209 103.95334 1228 ft 154 kts 24°
2026-05-04 17:08 1.31112 103.96144 820 ft 140 kts 24°
2026-05-04 17:08 1.31980 103.96524 659 ft 134 kts 24°
2026-05-04 17:09 1.32839 103.96880 516 ft 136 kts 22°
2026-05-04 17:09 1.33712 103.97247 334 ft 136 kts 22°
2026-05-04 17:09 1.34583 103.97621 157 ft 135 kts 22°
2026-05-04 17:10 1.36173 103.98288 30 ft 80 kts 23°
2026-05-04 17:10 1.36724 103.98668 30 ft 13 kts 120°
2026-05-04 17:11 1.36636 103.98679 30 ft 15 kts 200°
2026-05-04 17:11 1.36533 103.98635 30 ft 18 kts 203°
2026-05-04 17:11 1.36345 103.98657 30 ft 15 kts 201°
2026-05-04 17:12 1.36241 103.98612 30 ft 18 kts 203°
2026-05-04 17:12 1.35978 103.98501 29 ft 23 kts 202°
2026-05-04 17:13 1.35469 103.98286 30 ft 28 kts 202°
2026-05-04 17:14 1.35225 103.98371 30 ft 1 kts 113°
2026-05-04 17:14 1.35220 103.98381 30 ft 0 kts 113°